This is the latest recevied weather packets stored in our database for station/object KG5WBN. If no packets are shown the sender has not sent any weather packets the latest 10 day(s).
| Time | Temp. | Humidity | Pressure | Rain* | Wind** | Luminosity | Snow |
|---|---|---|---|---|---|---|---|
| 1788045866 | 32.22° C | 44% | 1013.5 hPa | 0 mm | - | 56 W/m² | - |
| 1788045561 | 32.22° C | 44% | 1013.5 hPa | 0 mm | - | 57 W/m² | - |
| 1788045257 | 32.22° C | 44% | 1013.5 hPa | 0 mm | - | 57 W/m² | - |
| 1788044952 | 32.22° C | 44% | 1013.5 hPa | 0 mm | - | 57 W/m² | - |
| 1788044651 | 32.78° C | 44% | 1013.5 hPa | 0 mm | - | 59 W/m² | - |
| 1788044350 | 32.78° C | 44% | 1013.5 hPa | 0 mm | - | 66 W/m² | - |
| 1788044046 | 32.78° C | 44% | 1013.5 hPa | 0 mm | - | 67 W/m² | - |
| 1788043742 | 32.78° C | 44% | 1013.5 hPa | 0 mm | - | 72 W/m² | - |
| 1788043437 | 33.33° C | 43% | 1013.5 hPa | 0 mm | - | 98 W/m² | - |
| 1788043136 | 34.44° C | 42% | 1013.9 hPa | 0 mm | - | 191 W/m² | - |
| 1788042832 | 34.44° C | 42% | 1013.9 hPa | 0 mm | - | 237 W/m² | - |
| 1788042530 | 33.89° C | 43% | 1013.9 hPa | 0 mm | - | 267 W/m² | - |
| 1788042226 | 33.89° C | 43% | 1013.9 hPa | 0 mm | - | 223 W/m² | - |
| 1788041922 | 34.44° C | 42% | 1013.9 hPa | 0 mm | - | 253 W/m² | - |
| 1788041617 | 33.89° C | 43% | 1013.9 hPa | 0 mm | - | 257 W/m² | - |
| 1788041317 | 33.89° C | 42% | 1014.2 hPa | 0 mm | - | 257 W/m² | - |
| 1788041016 | 35° C | 42% | 1013.9 hPa | 0 mm | - | 216 W/m² | - |
| 1788040714 | 34.44° C | 42% | 1014.2 hPa | 0 mm | - | 259 W/m² | - |
| 1788040409 | 33.89° C | 43% | 1014.2 hPa | 0 mm | - | 167 W/m² | - |
| 1788040105 | 34.44° C | 42% | 1013.9 hPa | 0 mm | - | 265 W/m² | - |
| 1788039800 | 34.44° C | 42% | 1013.9 hPa | 0 mm | - | 265 W/m² | - |
| 1788039494 | 34.44° C | 42% | 1014.2 hPa | 0 mm | - | 302 W/m² | - |
| 1788039190 | 34.44° C | 42% | 1014.2 hPa | 0 mm | - | 211 W/m² | - |
| 1788038885 | 34.44° C | 42% | 1014.2 hPa | 0 mm | - | 320 W/m² | - |
| 1788038580 | 33.89° C | 43% | 1014.2 hPa | 0 mm | - | 299 W/m² | - |
* Rain latest hour (hover to see other rain measurements)
** Current wind speed in m/s (hover to see current wind gust speed)